FW8759 Weather Reports


time (UTC)temp
F
wind
direction
speed
knots
gust
knots
rain 1hr
in
rain 24hr
in
rain mn
in
humidity
%
barometer
mb
20260505223953 74 236 0.0 0.0 0.00 0.00 0.00 46 1010.8
20260505223450 74 236 0.9 0.9 0.00 0.00 0.00 46 1010.8
20260505222947 74 230 1.7 1.7 0.00 0.00 0.00 46 1011.1
20260505222443 75 236 0.9 0.9 0.00 0.00 0.00 47 1010.8
20260505221939 74 273 0.0 0.0 0.00 0.00 0.00 47 1010.8
20260505221436 74 239 0.0 0.0 0.00 0.00 0.00 47 1010.9
20260505220933 75 222 0.9 1.7 0.00 0.00 0.00 45 1010.8
20260505220430 74 242 0.0 0.0 0.00 0.00 0.00 46 1010.3
20260505215928 74 243 1.7 2.6 0.00 0.00 0.00 46 1010.4
20260505215426 75 160 2.6 4.3 0.00 0.00 0.00 45 1010.5
20260505214923 75 272 0.0 0.0 0.00 0.00 0.00 45 1010.7
20260505214421 75 235 0.9 0.9 0.00 0.00 0.00 45 1011.0
20260505213918 75 270 2.6 4.3 0.00 0.00 0.00 44 1010.8
20260505213416 75 145 2.6 4.3 0.00 0.00 0.00 44 1010.8
20260505212912 75 220 2.6 4.3 0.00 0.00 0.00 43 1010.5
20260505212408 76 230 1.7 1.7 0.00 0.00 0.00 43 1010.7
20260505211905 76 252 0.0 0.9 0.00 0.00 0.00 45 1010.8
20260505211403 76 228 1.7 1.7 0.00 0.00 0.00 45 1010.9
20260505210859 75 161 2.6 2.6 0.00 0.00 0.00 42 1011.0
20260505210356 75 254 2.6 2.6 0.00 0.00 0.00 45 1010.9
20260505205853 75 241 0.9 0.9 0.00 0.00 0.00 45 1010.9
20260505205351 75 182 2.6 2.6 0.00 0.00 0.00 45 1010.9
20260505204848 75 230 3.5 4.3 0.00 0.00 0.00 45 1010.8
20260505204345 76 260 1.7 2.6 0.00 0.00 0.00 43 1010.9
20260505203842 76 256 1.7 1.7 0.00 0.00 0.00 46 1011.0
20260505203339 75 269 0.9 1.7 0.00 0.00 0.00 44 1010.6
20260505202835 75 242 2.6 5.2 0.00 0.00 0.00 44 1011.0
20260505202331 76 255 0.9 0.9 0.00 0.00 0.00 44 1011.1
20260505201828 76 241 2.6 4.3 0.00 0.00 0.00 41 1011.3
20260505201326 76 254 0.9 0.9 0.00 0.00 0.00 42 1011.4
20260505200824 75 222 1.7 1.7 0.00 0.00 0.00 45 1011.1
20260505200321 76 273 1.7 1.7 0.00 0.00 0.00 41 1011.4
20260505195816 76 214 1.7 2.6 0.00 0.00 0.00 43 1011.0
20260505195314 76 218 0.9 1.7 0.00 0.00 0.00 41 1011.3
20260505194810 76 208 3.5 4.3 0.00 0.00 0.00 43 1011.4
20260505194308 76 167 2.6 4.3 0.00 0.00 0.00 43 1011.6
20260505193803 77 235 3.5 4.3 0.00 0.00 0.00 43 1011.6
20260505193301 77 273 0.9 1.7 0.00 0.00 0.00 43 1011.6
20260505192759 76 245 2.6 2.6 0.00 0.00 0.00 44 1011.6
20260505192256 77 167 2.6 2.6 0.00 0.00 0.00 44 1011.8
20260505191754 78 212 0.0 0.9 0.00 0.00 0.00 45 1011.9
20260505191252 77 261 0.9 1.7 0.00 0.00 0.00 44 1012.0
20260505190748 78 247 1.7 1.7 0.00 0.00 0.00 42 1011.7
20260505190243 77 248 1.7 1.7 0.00 0.00 0.00 43 1012.0
20260505185740 76 244 1.7 1.7 0.00 0.00 0.00 44 1011.8
20260505185237 77 229 1.7 1.7 0.00 0.00 0.00 41 1012.2
20260505184732 78 167 2.6 4.3 0.00 0.00 0.00 40 1011.9
20260505184230 77 181 0.9 1.7 0.00 0.00 0.00 43 1012.0
20260505183727 77 205 2.6 2.6 0.00 0.00 0.00 40 1012.2
20260505183224 77 259 1.7 1.7 0.00 0.00 0.00 41 1012.2
20260505182721 77 148 4.3 6.1 0.00 0.00 0.00 39 1012.5
20260505182218 77 203 3.5 4.3 0.00 0.00 0.00 40 1012.5
20260505181714 77 231 1.7 1.7 0.00 0.00 0.00 42 1012.6
20260505181212 77 246 1.7 1.7 0.00 0.00 0.00 47 1012.4
20260505180708 77 252 0.0 0.9 0.00 0.00 0.00 44 1012.5
20260505180205 76 155 1.7 2.6 0.00 0.00 0.00 44 1012.7
20260505175701 78 169 0.9 2.6 0.00 0.00 0.00 43 1012.8
20260505175157 77 244 1.7 1.7 0.00 0.00 0.00 46 1012.9
20260505174654 77 255 0.9 1.7 0.00 0.00 0.00 43 1012.8
20260505174150 78 248 1.7 1.7 0.00 0.00 0.00 43 1013.1
20260505173647 77 224 2.6 2.6 0.00 0.00 0.00 44 1012.9
20260505173144 78 263 1.7 2.6 0.00 0.00 0.00 42 1012.8
20260505172641 77 257 0.0 0.9 0.00 0.00 0.00 43 1012.8
20260505172138 77 219 1.7 1.7 0.00 0.00 0.00 42 1013.1
20260505171637 78 263 0.0 0.9 0.00 0.00 0.00 45 1013.1
20260505171135 76 206 1.7 1.7 0.00 0.00 0.00 45 1013.3
20260505170632 77 207 2.6 2.6 0.00 0.00 0.00 43 1013.3
20260505170128 77 229 3.5 4.3 0.00 0.00 0.00 42 1013.1
20260505165623 77 250 1.7 2.6 0.00 0.00 0.00 43 1013.1
20260505165120 76 260 0.9 0.9 0.00 0.00 0.00 45 1012.8
20260505164615 76 258 4.3 5.2 0.00 0.00 0.00 45 1013.1
20260505164113 75 216 1.7 2.6 0.00 0.00 0.00 46 1013.0
20260505163612 75 246 0.0 0.9 0.00 0.00 0.00 45 1013.5
20260505163109 76 235 2.6 4.3 0.00 0.00 0.00 44 1013.6
20260505162606 75 256 0.9 0.9 0.00 0.00 0.00 45 1013.4
20260505162104 74 258 0.9 0.9 0.00 0.00 0.00 46 1013.5
20260505161600 74 267 2.6 2.6 0.00 0.00 0.00 48 1013.6
20260505161058 74 202 3.5 4.3 0.00 0.00 0.00 48 1013.6
20260505160555 74 254 1.7 1.7 0.00 0.00 0.00 48 1013.3
20260505153032 73 213 1.7 1.7 0.00 0.00 0.00 55 1013.7
20260505152529 73 260 0.9 0.9 0.00 0.00 0.00 56 1013.5
20260505152025 71 249 0.0 0.0 0.00 0.00 0.00 58 1013.7
20260505151520 70 310 0.0 0.0 0.00 0.00 0.00 58 1013.9
20260505151017 69 200 1.7 1.7 0.00 0.00 0.00 59 1013.8
20260505150514 69 216 1.7 1.7 0.00 0.00 0.00 60 1014.0
20260505140439 62 255 0.0 0.0 0.00 0.00 0.00 68 1013.8
20260505124852 55 273 0.0 0.0 0.00 0.00 0.00 87 1013.2
20260505124349 54 273 0.0 0.0 0.00 0.00 0.00 88 1013.1
20260505123845 53 273 0.0 0.0 0.00 0.00 0.00 91 1013.1
20260505123342 52 262 0.0 0.0 0.00 0.00 0.00 92 1013.2
20260505122838 52 262 0.0 0.0 0.00 0.00 0.00 94 1013.2
20260505122336 51 263 0.0 0.0 0.00 0.00 0.00 95 1013.0
20260505121832 50 261 0.0 0.0 0.00 0.00 0.00 95 1013.0
20260505121329 49 263 0.0 0.0 0.00 0.00 0.00 97 1013.0
20260505120825 48 262 0.0 0.0 0.00 0.00 0.00 97 1013.4
20260505120321 48 273 0.0 0.0 0.00 0.00 0.00 98 1013.0
20260505115820 47 274 0.0 0.0 0.00 0.00 0.00 98 1013.0
20260505115317 47 274 0.0 0.0 0.00 0.00 0.00 98 1013.0
20260505114815 47 273 0.0 0.0 0.00 0.00 0.00 99 1012.9
20260505114311 47 272 0.0 0.0 0.00 0.00 0.00 99 1013.1
20260505113808 46 273 0.0 0.0 0.00 0.00 0.00 99 1012.8
20260505113304 46 255 0.0 0.0 0.00 0.00 0.00 99 1012.6
20260505112800 46 273 0.0 0.0 0.00 0.00 0.00 99 1012.6
20260505112258 46 273 0.0 0.0 0.00 0.00 0.00 99 1012.7
20260505111758 45 288 0.0 0.0 0.00 0.00 0.00 99 1012.5
20260505111254 45 287 0.0 0.0 0.00 0.00 0.00 99 1012.4
20260505110750 45 273 0.0 0.0 0.00 0.00 0.00 99 1012.4
20260505110248 45 247 0.9 0.9 0.00 0.00 0.00 99 1012.6
20260505101722 46 256 0.0 0.0 0.00 0.00 0.00 98 1012.3
20260505101218 46 273 0.0 0.0 0.00 0.00 0.00 98 1012.5
20260505100715 46 280 0.0 0.0 0.00 0.00 0.00 98 1012.3
20260505100212 46 272 0.0 0.0 0.00 0.00 0.00 98 1012.3
20260505095707 46 254 0.0 0.0 0.00 0.00 0.00 98 1012.3
20260505095205 46 272 0.0 0.0 0.00 0.00 0.00 98 1012.3
20260505094700 46 293 0.0 0.0 0.00 0.00 0.00 97 1012.2
20260505094157 46 257 0.0 0.0 0.00 0.00 0.00 97 1012.3
20260505093653 47 257 0.0 0.0 0.00 0.00 0.00 97 1012.4
20260505093151 47 256 0.0 0.0 0.00 0.00 0.00 97 1012.3
20260505092647 47 257 0.0 0.0 0.00 0.00 0.00 97 1012.0
20260505092147 47 273 0.9 0.9 0.00 0.00 0.00 97 1012.0
20260505091643 47 293 0.0 0.0 0.00 0.00 0.00 96 1012.3
20260505091141 47 261 0.0 0.0 0.00 0.00 0.00 96 1012.2
20260505090638 47 273 0.0 0.0 0.00 0.00 0.00 96 1012.3
20260505090137 48 260 0.0 0.0 0.00 0.00 0.00 96 1012.5
20260505085633 48 273 0.0 0.0 0.00 0.00 0.00 96 1012.3
20260505085132 48 272 0.0 0.0 0.00 0.00 0.00 96 1012.4
20260505084629 48 273 0.0 0.0 0.00 0.00 0.00 96 1012.5
20260505084128 48 274 0.0 0.0 0.00 0.00 0.00 96 1012.4
20260505083625 48 273 0.0 0.0 0.00 0.00 0.00 95 1012.0
20260505083121 48 274 0.0 0.0 0.00 0.00 0.00 95 1012.4
20260505082617 48 273 0.0 0.0 0.00 0.00 0.00 95 1012.5
20260505082114 48 273 0.0 0.0 0.00 0.00 0.00 95 1012.5
20260505081610 48 282 0.0 0.0 0.00 0.00 0.00 95 1012.2
20260505081108 48 273 0.0 0.0 0.00 0.00 0.00 94 1012.4
20260505080603 48 274 0.0 0.0 0.00 0.00 0.00 94 1012.4
20260505080100 49 272 0.0 0.0 0.00 0.00 0.00 94 1012.2
20260505075556 49 272 0.0 0.0 0.00 0.00 0.00 94 1012.5
20260505075053 49 273 0.0 0.0 0.00 0.00 0.00 93 1012.4
20260505074550 49 273 0.0 0.0 0.00 0.00 0.00 93 1012.3
20260505074047 49 273 0.0 0.0 0.00 0.00 0.00 93 1012.4
20260505073544 50 269 0.0 0.0 0.00 0.00 0.00 93 1012.3
20260505073043 50 273 0.0 0.0 0.00 0.00 0.00 92 1012.2
20260505072538 50 274 0.0 0.0 0.00 0.00 0.00 92 1012.4
20260505072035 50 275 0.0 0.0 0.00 0.00 0.00 92 1012.5
20260505071530 50 274 0.0 0.0 0.00 0.00 0.00 92 1012.2
20260505071029 50 278 0.0 0.0 0.00 0.00 0.00 91 1012.4
20260505070526 50 282 0.0 0.0 0.00 0.00 0.00 91 1012.5
20260505070022 50 274 0.0 0.0 0.00 0.00 0.00 90 1012.5
20260505065518 51 273 0.0 0.0 0.00 0.00 0.00 90 1012.3
20260505065014 51 274 0.0 0.0 0.00 0.00 0.00 90 1012.2
20260505064512 51 269 0.0 0.0 0.00 0.00 0.00 89 1012.6
20260505064010 52 257 0.0 0.0 0.00 0.00 0.00 88 1012.2
20260505063507 52 273 0.0 0.0 0.00 0.00 0.00 87 1012.4
20260505063002 52 273 0.0 0.0 0.00 0.00 0.00 85 1012.5
20260505062459 53 272 0.0 0.0 0.00 0.00 0.00 85 1012.5
20260505061956 53 272 0.0 0.0 0.00 0.00 0.00 83 1012.6
20260505061454 53 274 0.0 0.0 0.00 0.00 0.00 83 1012.6
20260505060951 54 305 0.0 0.0 0.00 0.00 0.00 82 1012.7
20260505060449 53 303 0.0 0.0 0.00 0.00 0.00 83 1012.5
20260505055945 53 318 0.0 0.0 0.00 0.00 0.00 85 1012.8
20260505055441 53 280 0.0 0.0 0.00 0.00 0.00 84 1012.6
20260505054938 54 289 0.0 0.0 0.00 0.00 0.00 83 1012.5
20260505054435 54 288 0.0 0.0 0.00 0.00 0.00 83 1012.5
20260505053933 54 288 0.0 0.0 0.00 0.00 0.00 82 1012.5
20260505053430 54 289 0.0 0.0 0.00 0.00 0.00 81 1012.5
20260505052927 55 281 0.0 0.0 0.00 0.00 0.00 80 1012.7
20260505052424 55 291 0.0 0.0 0.00 0.00 0.00 79 1012.6
20260505051921 55 288 0.0 0.0 0.00 0.00 0.00 80 1012.7
20260505051418 55 291 0.0 0.0 0.00 0.00 0.00 79 1012.5
20260505050916 56 291 0.0 0.0 0.00 0.00 0.00 77 1012.6
20260505050414 56 302 0.0 0.0 0.00 0.00 0.00 77 1012.3
20260505041341 58 280 0.0 0.0 0.00 0.00 0.00 73 1012.3
20260505040838 58 274 0.0 0.0 0.00 0.00 0.00 71 1012.5
20260505040336 59 272 0.0 0.0 0.00 0.00 0.00 71 1012.6
20260505035833 59 273 0.0 0.0 0.00 0.00 0.00 71 1012.6
20260505035328 59 273 0.0 0.0 0.00 0.00 0.00 71 1012.6
20260505034826 59 269 0.0 0.0 0.00 0.00 0.00 68 1012.6
20260505034322 59 252 0.0 0.0 0.00 0.00 0.00 68 1012.5
20260505033820 59 258 0.0 0.0 0.00 0.00 0.00 68 1012.6
20260505033316 59 289 0.0 0.0 0.00 0.00 0.00 68 1012.6
20260505032815 59 278 0.0 0.0 0.00 0.00 0.00 67 1012.7
20260505032310 59 279 0.0 0.0 0.00 0.00 0.00 67 1012.8
20260505031808 59 278 0.0 0.0 0.00 0.00 0.00 67 1012.7
20260505031304 60 279 0.0 0.0 0.00 0.00 0.00 67 1012.5
20260505030802 60 281 0.0 0.0 0.00 0.00 0.00 65 1012.7
20260505030258 60 278 0.0 0.0 0.00 0.00 0.00 64 1012.6
20260505025753 60 279 0.0 0.0 0.00 0.00 0.00 64 1012.6
20260505025251 60 281 0.0 0.0 0.00 0.00 0.00 66 1012.6
20260505024749 60 283 0.0 0.0 0.00 0.00 0.00 69 1012.6
20260505024246 61 278 0.0 0.0 0.00 0.00 0.00 67 1012.8
20260505023744 61 272 0.0 0.0 0.00 0.00 0.00 68 1012.6
20260505023240 61 251 0.0 0.0 0.00 0.00 0.00 65 1012.6
20260505022738 61 278 0.0 0.0 0.00 0.00 0.00 66 1012.6
20260505022235 61 278 0.0 0.0 0.00 0.00 0.00 65 1012.4
20260505021731 61 279 0.0 0.0 0.00 0.00 0.00 64 1012.5
20260505021228 61 278 0.0 0.0 0.00 0.00 0.00 64 1012.4
20260505020724 61 284 0.0 0.0 0.00 0.00 0.00 64 1012.4
20260505020219 62 286 0.0 0.0 0.00 0.00 0.00 64 1012.4
20260505015717 62 278 0.0 0.0 0.00 0.00 0.00 64 1012.4
20260505015214 62 278 0.0 0.0 0.00 0.00 0.00 62 1012.2
20260505014711 62 278 0.0 0.0 0.00 0.00 0.00 62 1012.3
20260505014208 62 278 0.0 0.0 0.00 0.00 0.00 62 1012.2
20260505013705 63 278 0.0 0.0 0.00 0.00 0.00 63 1012.2
20260505013202 63 279 0.0 0.0 0.00 0.00 0.00 63 1011.7
20260505012700 63 278 0.0 0.0 0.00 0.00 0.00 63 1011.9
20260505012157 63 278 0.0 0.0 0.00 0.00 0.00 62 1011.7
20260505011653 63 278 0.0 0.0 0.00 0.00 0.00 63 1012.0
20260505011150 63 278 0.0 0.0 0.00 0.00 0.00 64 1012.0
20260505010645 63 278 0.0 0.0 0.00 0.00 0.00 66 1011.9
20260505010142 64 279 0.0 0.0 0.00 0.00 0.00 67 1011.9
20260505005638 64 278 0.0 0.0 0.00 0.00 0.00 67 1011.8
20260505005136 64 278 0.0 0.0 0.00 0.00 0.00 67 1011.8
20260505004633 65 287 0.0 0.0 0.00 0.00 0.00 67 1011.6
20260505004129 65 289 0.0 0.0 0.00 0.00 0.00 64 1011.5
20260505003626 65 240 0.9 0.9 0.00 0.00 0.00 68 1011.6
20260505003124 65 278 0.0 0.0 0.00 0.00 0.00 66 1011.4
20260505002620 66 288 0.9 0.9 0.00 0.00 0.00 66 1011.3
20260505002118 66 292 0.9 0.9 0.00 0.00 0.00 66 1011.3
20260505001615 66 279 0.9 0.9 0.00 0.00 0.00 67 1011.3
20260505001113 66 278 0.0 0.0 0.00 0.00 0.00 67 1010.9
20260505000609 66 275 0.0 0.0 0.00 0.00 0.00 67 1011.4
20260505000108 67 266 0.0 0.0 0.00 0.00 0.00 64 1011.3
20260504235603 67 277 0.0 0.0 0.00 0.00 0.00 63 1011.3
20260504235100 68 286 0.9 0.9 0.00 0.00 0.00 63 1011.4
20260504234557 68 273 0.0 0.0 0.00 0.00 0.00 63 1011.2
20260504234054 69 273 0.0 0.0 0.00 0.00 0.00 62 1011.5
20260504233549 69 273 0.0 0.0 0.00 0.00 0.00 59 1011.3
20260504233046 70 272 0.0 0.0 0.00 0.00 0.00 59 1011.5
20260504232544 71 273 0.0 0.0 0.00 0.00 0.00 59 1011.3
20260504232042 71 273 0.0 0.0 0.00 0.00 0.00 55 1011.2
20260504231538 71 273 0.0 0.0 0.00 0.00 0.00 57 1011.2
20260504231034 71 273 0.0 0.0 0.00 0.00 0.00 58 1011.1
20260504230530 71 272 0.0 0.0 0.00 0.00 0.00 56 1011.2
20260504230029 71 273 0.0 0.0 0.00 0.00 0.00 56 1011.1
20260504225526 71 273 0.0 0.0 0.00 0.00 0.00 56 1011.3
20260504225023 72 273 0.0 0.0 0.00 0.00 0.00 54 1011.2
20260504224520 72 258 0.0 0.0 0.00 0.00 0.00 54 1011.2